DMSP 5D-3 F17 (USA 191)

Satellite information

Favourite Embed

Satellite Type and Status

PAYLOADIN ORBIT

Key statistics

Satellite DMSP 5D-3 F17 (USA 191) at a glance.

Uptime

6930

Days in orbit

Revolutions

≈ 14.1

Per day

Orbit

SSO

Sun Synchronous Orbit

Inclination

98.7

Latest

Satellite identification and parameters

Extended collection of information and parameters for DMSP 5D-3 F17 (USA 191).

Object identification

Identified? True

Debris? False

Object name: DMSP 5D-3 F17 (USA 191)

International designator: 2006-050A

Object number (NORAD): 29522

Object ID (CCSDS): 29522

Country: UNITED STATES OF AMERICA (US)

Current information (Y/N): Y

RCS size: LARGE

Orbital parameters

Period: 101.775 minutes

Inclination: 98.741 deg

SMA: 7220.83 km

Apoapsis: 850.149 km

Periapsis: 835.241 km

RAAN: 304.3758 deg

Eccentricy: 0.00103232

Argument of periapsis: 13.923 deg

Mean anomaly: 346.2226 deg

Mean motion: 14.14888098 rev/day

Mean motion (dot): 0.00000268 rev/day2

B* drag term: 0.00016126587 1/REarth

Two-line elements (TLE)

Creation date: Oct. 25, 2025, 3:11 a.m.

Reference frame: TEME

Reference center: EARTH

Epoch: Oct. 24, 2025, 11:26 p.m. UTC

TLE line 0: 0 DMSP 5D-3 F17 (USA 191)

TLE line 1: 1 29522U 06050A 25297.97673862 .00000268 00000-0 16127-3 0 9990

TLE line 2: 2 29522 98.7410 304.3758 0010323 13.9230 346.2226 14.14888098979155

Live tracking on map

Real-time ground track for satellite DMSP 5D-3 F17 (USA 191).

In-orbit conjunctions

There are no conjunctions computed for DMSP 5D-3 F17 (USA 191), at the moment. Check back to stay up to date, as we update our databases every day.

Go to all conjunctions

Associated space launch

11th gen military meteorological satellite

DMSP 5D-3 F17 (USA 191) was lifted into orbit during the mission ‘Delta IV M | DMSP F-17’, on board a Delta IV M space rocket.

The launch took place on Nov. 4, 2006, 1:53 p.m. from Space Launch Complex 6.

For more information about the launch, click the button.

Launch to space Delta IV M | DMSP F-17
Delta IV M | DMSP F-17

Agency: N/A

Status: Launch Successful

Launch date: Nov. 4, 2006, 1:53 p.m. UTC

Rocket: Delta IV M

Launch pad: Space Launch Complex 6

Location: Vandenberg SFB, CA, USA

...

Latest news about this satellite

There are no fresh news available about this satellite. Check back as we update our databases every day.


Newsletter sign-up

Weekly statistics, charts and insights to help you stay on top of the space industry.